STARLINK-34663

Last updated on Sat Aug 16 2025 00:02:05 GMT+0000 (Coordinated Universal Time)

1 64807U 25150T 25227.58336806 .00060362 00000+0 13714-2 0 9999 2 64807 70.0000 315.4656 0003215 273.7215 2.0095 15.42703494 6081
UTC large
Height (km)
Speed (km/s)
/
Latitude / Longitude
Inclination (degrees)
Orbital Period (minutes)
Azimuth
Elevation
Range (km)
Doppler Factor

Next 0 passes for location: London (51.5072 / 0.1276)

Sorry there are no passes over London.